• In Belarus
  • List of Countries
  • For 7 days
  • Water Temperature
  • Satellite Maps
  • Weather Map
  • Weather Widgets
  • user-avatar
    Login

    Hourly Weather Lankaran

    Today, 25 September, Tuesday

    Time Temperature Precipitation Wind Pressure Humidity
    00:00 +13°C° 0 mm 1 mps 636 mmHg 80%
    01:00 +13°C° 0 mm 1 mps 636 mmHg 78%
    02:00 +13°C° 0 mm 1 mps 636 mmHg 76%
    03:00 +12°C° 0 mm 1 mps 635 mmHg 74%
    04:00 +12°C° 0 mm 1 mps 635 mmHg 72%
    05:00 +12°C° 0 mm 1 mps 635 mmHg 70%
    06:00 +12°C° 0 mm 2 mps 635 mmHg 68%
    07:00 +15°C° 0 mm 2 mps 636 mmHg 58%
    08:00 +17°C° 0 mm 2 mps 637 mmHg 47%
    09:00 +20°C° 0 mm 2 mps 637 mmHg 37%
    10:00 +21°C° 0 mm 2 mps 637 mmHg 34%
    11:00 +23°C° 0 mm 2 mps 637 mmHg 32%
    12:00 +24°C° 0 mm 3 mps 637 mmHg 30%
    13:00 +24°C° 0 mm 3 mps 636 mmHg 30%
    14:00 +24°C° 0 mm 3 mps 636 mmHg 31%
    15:00 +25°C° 0 mm 3 mps 636 mmHg 32%
    16:00 +22°C° 0 mm 3 mps 635 mmHg 39%
    17:00 +20°C° 0 mm 2 mps 634 mmHg 46%
    18:00 +18°C° 0 mm 2 mps 634 mmHg 53%
    19:00 +17°C° 0 mm 2 mps 634 mmHg 54%
    20:00 +17°C° 0 mm 2 mps 634 mmHg 54%
    21:00 +16°C° 0 mm 2 mps 634 mmHg 55%
    22:00 +16°C° 0 mm 2 mps 634 mmHg 55%
    23:00 +16°C° 0 mm 2 mps 634 mmHg 54%

    Tomorrow, 26 September, Wednesday

    Time Temperature Precipitation Wind Pressure Humidity
    00:00 +16°C° 0 mm 2 mps 634 mmHg 54%
    01:00 +15°C° 0 mm 1 mps 633 mmHg 54%
    02:00 +15°C° 0 mm 1 mps 633 mmHg 55%
    03:00 +14°C° 0 mm 1 mps 633 mmHg 56%
    04:00 +14°C° 0 mm 1 mps 633 mmHg 59%
    05:00 +14°C° 0 mm 1 mps 634 mmHg 61%
    06:00 +14°C° 0 mm 1 mps 634 mmHg 63%
    07:00 +16°C° 0 mm 1 mps 635 mmHg 58%
    08:00 +18°C° 0 mm 2 mps 636 mmHg 53%
    09:00 +20°C° 0 mm 2 mps 636 mmHg 49%
    10:00 +21°C° 0.1 mm 2 mps 637 mmHg 47%
    11:00 +21°C° 0.1 mm 3 mps 637 mmHg 46%
    12:00 +22°C° 0.1 mm 3 mps 637 mmHg 45%
    13:00 +22°C° 0.1 mm 3 mps 637 mmHg 49%
    14:00 +21°C° 0.1 mm 4 mps 637 mmHg 53%
    15:00 +21°C° 0.1 mm 4 mps 636 mmHg 57%
    16:00 +19°C° 0.2 mm 4 mps 636 mmHg 66%
    17:00 +18°C° 0.2 mm 4 mps 636 mmHg 75%
    18:00 +15°C° 0.2 mm 5 mps 636 mmHg 84%
    19:00 +15°C° 0.5 mm 5 mps 637 mmHg 86%
    20:00 +15°C° 0.5 mm 5 mps 637 mmHg 87%
    21:00 +14°C° 0.5 mm 5 mps 637 mmHg 88%
    22:00 +14°C° 0.3 mm 5 mps 637 mmHg 89%
    23:00 +14°C° 0.3 mm 5 mps 638 mmHg 89%

    Day after tomorrow, 27 September, Thursday

    Time Temperature Precipitation Wind Pressure Humidity
    00:00 +13°C° 0.3 mm 5 mps 638 mmHg 89%
    01:00 +13°C° 0.5 mm 4 mps 638 mmHg 89%
    02:00 +13°C° 0.5 mm 4 mps 638 mmHg 90%
    03:00 +13°C° 0.5 mm 4 mps 638 mmHg 90%
    04:00 +13°C° 0.4 mm 4 mps 638 mmHg 90%
    05:00 +12°C° 0.4 mm 4 mps 638 mmHg 91%
    06:00 +12°C° 0.4 mm 4 mps 638 mmHg 91%
    07:00 +13°C° 0.3 mm 4 mps 638 mmHg 87%
    08:00 +13°C° 0.3 mm 4 mps 639 mmHg 84%
    09:00 +14°C° 0.3 mm 4 mps 639 mmHg 80%
    10:00 +14°C° 0.2 mm 4 mps 639 mmHg 78%
    11:00 +15°C° 0.2 mm 4 mps 639 mmHg 77%
    12:00 +15°C° 0.2 mm 4 mps 639 mmHg 76%
    13:00 +15°C° 0.2 mm 4 mps 639 mmHg 76%
    14:00 +15°C° 0.2 mm 4 mps 639 mmHg 76%
    15:00 +15°C° 0.2 mm 4 mps 638 mmHg 76%
    16:00 +14°C° 0.2 mm 4 mps 639 mmHg 80%
    17:00 +14°C° 0.2 mm 4 mps 639 mmHg 84%
    18:00 +13°C° 0.2 mm 4 mps 639 mmHg 88%
    19:00 +13°C° 0.2 mm 4 mps 639 mmHg 89%
    20:00 +13°C° 0.2 mm 4 mps 639 mmHg 89%
    21:00 +13°C° 0.2 mm 3 mps 640 mmHg 90%
    22:00 +12°C° 0.2 mm 3 mps 640 mmHg 91%
    23:00 +12°C° 0.2 mm 3 mps 640 mmHg 91%

    28 September, Friday

    Time Temperature Precipitation Wind Pressure Humidity
    00:00 +12°C° 0.2 mm 3 mps 639 mmHg 91%
    01:00 +12°C° 0.2 mm 3 mps 639 mmHg 91%
    02:00 +12°C° 0.2 mm 3 mps 639 mmHg 92%
    03:00 +12°C° 0.2 mm 3 mps 639 mmHg 92%
    04:00 +12°C° 0.2 mm 3 mps 639 mmHg 92%
    05:00 +12°C° 0.2 mm 3 mps 639 mmHg 92%
    06:00 +12°C° 0.2 mm 3 mps 639 mmHg 92%
    07:00 +12°C° 0.1 mm 3 mps 640 mmHg 88%
    08:00 +13°C° 0.1 mm 3 mps 640 mmHg 85%
    09:00 +14°C° 0.1 mm 3 mps 640 mmHg 81%
    10:00 +14°C° 0.1 mm 3 mps 640 mmHg 79%
    11:00 +16°C° 0.1 mm 3 mps 640 mmHg 76%
    12:00 +16°C° 0.1 mm 3 mps 640 mmHg 74%
    13:00 +16°C° 0.1 mm 3 mps 640 mmHg 74%
    14:00 +17°C° 0.1 mm 3 mps 640 mmHg 73%
    15:00 +17°C° 0.1 mm 3 mps 639 mmHg 73%
    16:00 +16°C° 0.1 mm 3 mps 639 mmHg 77%
    17:00 +14°C° 0.1 mm 3 mps 639 mmHg 81%
    18:00 +13°C° 0.1 mm 3 mps 639 mmHg 85%
    19:00 +14°C° 0.1 mm 2 mps 639 mmHg 87%
    20:00 +14°C° 0.1 mm 2 mps 639 mmHg 88%
    21:00 +14°C° 0.1 mm 2 mps 639 mmHg 90%
    22:00 +13°C° 0.1 mm 2 mps 639 mmHg 91%
    23:00 +13°C° 0.1 mm 1 mps 638 mmHg 92%

    29 September, Saturday

    Time Temperature Precipitation Wind Pressure Humidity
    00:00 +13°C° 0.1 mm 1 mps 638 mmHg 92%
    01:00 +13°C° 0 mm 1 mps 638 mmHg 93%
    02:00 +13°C° 0 mm 1 mps 638 mmHg 93%
    03:00 +13°C° 0 mm 1 mps 638 mmHg 93%
    04:00 +12°C° 0 mm 1 mps 637 mmHg 93%
    05:00 +12°C° 0 mm 1 mps 637 mmHg 93%
    06:00 +12°C° 0 mm 1 mps 637 mmHg 93%
    07:00 +14°C° 0 mm 1 mps 638 mmHg 84%
    08:00 +16°C° 0 mm 1 mps 638 mmHg 76%
    09:00 +17°C° 0 mm 2 mps 638 mmHg 67%
    10:00 +18°C° 0 mm 2 mps 638 mmHg 63%
    11:00 +19°C° 0 mm 2 mps 638 mmHg 59%
    12:00 +20°C° 0 mm 3 mps 638 mmHg 55%
    13:00 +21°C° 0 mm 3 mps 637 mmHg 55%
    14:00 +21°C° 0 mm 3 mps 637 mmHg 56%
    15:00 +21°C° 0 mm 3 mps 637 mmHg 57%
    16:00 +20°C° 0 mm 3 mps 636 mmHg 64%
    17:00 +18°C° 0 mm 2 mps 636 mmHg 71%
    18:00 +17°C° 0 mm 2 mps 636 mmHg 78%
    19:00 +17°C° 0 mm 2 mps 636 mmHg 80%
    20:00 +16°C° 0 mm 2 mps 636 mmHg 82%
    21:00 +16°C° 0 mm 1 mps 636 mmHg 85%
    22:00 +15°C° 0 mm 1 mps 635 mmHg 83%
    23:00 +15°C° 0 mm 1 mps 635 mmHg 82%

    30 September, Sunday

    Time Temperature Precipitation Wind Pressure Humidity
    00:00 +14°C° 0 mm 1 mps 635 mmHg 81%
    01:00 +14°C° 0 mm 1 mps 635 mmHg 79%
    02:00 +14°C° 0 mm 1 mps 635 mmHg 77%
    03:00 +14°C° 0 mm 1 mps 634 mmHg 75%
    04:00 +14°C° 0 mm 1 mps 635 mmHg 74%
    05:00 +14°C° 0 mm 1 mps 635 mmHg 72%
    06:00 +14°C° 0 mm 1 mps 635 mmHg 71%
    07:00 +16°C° 0 mm 1 mps 636 mmHg 60%
    08:00 +20°C° 0 mm 1 mps 636 mmHg 49%
    09:00 +23°C° 0 mm 2 mps 637 mmHg 39%
    10:00 +24°C° 0 mm 2 mps 637 mmHg 37%
    11:00 +25°C° 0 mm 2 mps 637 mmHg 34%
    12:00 +26°C° 0 mm 3 mps 637 mmHg 32%
    13:00 +26°C° 0 mm 3 mps 637 mmHg 34%
    14:00 +26°C° 0 mm 2 mps 636 mmHg 36%
    15:00 +25°C° 0 mm 2 mps 636 mmHg 38%
    16:00 +23°C° 0 mm 2 mps 636 mmHg 49%
    17:00 +20°C° 0 mm 2 mps 635 mmHg 59%
    18:00 +19°C° 0 mm 1 mps 635 mmHg 70%
    19:00 +19°C° 0 mm 1 mps 635 mmHg 72%
    20:00 +18°C° 0 mm 1 mps 635 mmHg 75%
    21:00 +16°C° 0 mm 1 mps 636 mmHg 78%
    22:00 +16°C° 0 mm 1 mps 635 mmHg 77%
    23:00 +16°C° 0 mm 1 mps 635 mmHg 77%
    Show more